Weather History for Page, AZ

Change the Weather History Date:

Tuesday, January 29, 2013

  Actual Average Record
Temperature  
Mean Temperature 34 °F -  
Max Temperature 43 °F 46 °F 55 °F (1981)
Min Temperature 26 °F 27 °F 14 °F (1979)
Degree Days  
Heating Degree Days 30    
Moisture  
Dew Point 13 °F    
Average Humidity 41    
Maximum Humidity 51    
Minimum Humidity 26    
Precipitation  
Precipitation 0.00 in - - ()
Sea Level Pressure  
Sea Level Pressure 29.99 in    
Wind  
Wind Speed 8 mph (WNW)    
Max Wind Speed 14 mph    
Max Gust Speed 24 mph    
Visibility 10 miles    
Events      
Averages and records for this station are not official NWS values.
T = Trace of Precipitation, MM = Missing Value Source: NWS Daily Summary

Daily Weather History Graph

Daily Weather History Graph

Search for Another Location

Airport:

Trip Planner

Search our weather history database for the weather conditions in past years. The results will help you decide how hot, cold, wet, or windy it might be!

Date:

Astronomy

Jan. 29, 2013 Rise Set
Actual Time 7:30 AM MST 5:48 PM MST
Civil Twilight 7:02 AM MST 6:15 PM MST
Nautical Twilight 6:31 AM MST 6:46 PM MST
Astronomical Twilight 6:01 AM MST 7:17 PM MST
Moon 8:42 PM MST (1/29) 8:34 AM MST (1/29)
Length of Visible Light 11h 12m
Length of Day
10h 17m
Waning Gibbous, 93% of the Moon is Illuminated
Jan 29
Waning Gibbous
Feb 3
Last Quarter
Feb 10
New
Feb 17
First Quarter
Feb 25
Full

Hourly Weather History & Observations

Time (MST) Temp. Windchill Dew Point Humidity Pressure Visibility Wind Dir Wind Speed Gust Speed Precip Events Conditions
12:53 AM 28.9 °F 23.9 °F 6.1 °F 38% 29.93 in 10.0 mi Variable 4.6 mph - N/A   Clear
1:53 AM 28.9 °F 19.8 °F 6.1 °F 38% 29.93 in 10.0 mi West 10.4 mph 17.3 mph N/A   Clear
2:53 AM 28.9 °F 21.1 °F 6.1 °F 38% 29.94 in 10.0 mi WNW 8.1 mph - N/A   Clear
3:53 AM 28.0 °F 20.0 °F 6.1 °F 39% 29.93 in 10.0 mi WNW 8.1 mph - N/A   Clear
4:53 AM 28.0 °F 21.7 °F 7.0 °F 41% 29.93 in 10.0 mi West 5.8 mph - N/A   Clear
5:53 AM 27.0 °F 19.5 °F 7.0 °F 43% 29.93 in 10.0 mi WNW 6.9 mph - N/A   Clear
6:53 AM 28.0 °F 22.8 °F 8.1 °F 43% 29.94 in 10.0 mi NW 4.6 mph - N/A   Clear
7:53 AM 27.0 °F 18.7 °F 10.9 °F 51% 29.97 in 10.0 mi NNW 8.1 mph - N/A   Clear
8:53 AM 28.9 °F 22.8 °F 12.0 °F 49% 29.97 in 10.0 mi NW 5.8 mph - N/A   Clear
9:53 AM 30.9 °F - 12.9 °F 47% 29.98 in 10.0 mi Calm Calm - N/A   Clear
10:53 AM 34.0 °F 28.8 °F 12.9 °F 42% 29.97 in 10.0 mi North 5.8 mph - N/A   Clear
11:53 AM 37.0 °F 31.0 °F 14.0 °F 39% 29.95 in 10.0 mi North 8.1 mph - N/A   Overcast
12:53 PM 37.9 °F 32.7 °F 14.0 °F 38% 29.92 in 10.0 mi West 6.9 mph - N/A   Mostly Cloudy
1:53 PM 39.9 °F 32.9 °F 17.1 °F 40% 29.91 in 10.0 mi NW 11.5 mph 18.4 mph N/A   Overcast
2:53 PM 41.0 °F 33.9 °F 17.1 °F 38% 29.91 in 10.0 mi WNW 12.7 mph 23.0 mph N/A   Clear
3:53 PM 43.0 °F 36.4 °F 18.0 °F 37% 29.92 in 10.0 mi WNW 12.7 mph 24.2 mph N/A   Partly Cloudy
4:53 PM 39.9 °F 32.5 °F 19.0 °F 43% 29.96 in 10.0 mi WNW 12.7 mph 24.2 mph N/A   Overcast
5:53 PM 39.0 °F 31.0 °F 19.0 °F 45% 30.00 in 10.0 mi WNW 13.8 mph 20.7 mph N/A   Clear
6:53 PM 37.0 °F 29.3 °F 18.0 °F 46% 30.03 in 10.0 mi WNW 11.5 mph 23.0 mph N/A   Clear
7:53 PM 36.0 °F 28.5 °F 18.0 °F 48% 30.09 in 10.0 mi WNW 10.4 mph 18.4 mph N/A   Clear
8:53 PM 36.0 °F 29.6 °F 17.1 °F 46% 30.12 in 10.0 mi WNW 8.1 mph 17.3 mph N/A   Clear
9:53 PM 35.1 °F 28.6 °F 16.0 °F 46% 30.15 in 10.0 mi WNW 8.1 mph 17.3 mph N/A   Clear
10:53 PM 34.0 °F 28.0 °F 15.1 °F 46% 30.17 in 10.0 mi West 6.9 mph - N/A   Clear
11:53 PM 35.1 °F 27.9 °F 16.0 °F 46% 30.18 in 10.0 mi WNW 9.2 mph 17.3 mph N/A   Clear